Flag for U.S.A. Weather past 2 weeks in Oklahoma City, Oklahoma, U.S.A.

Now
73 °F

Scattered clouds.


Feels Like: 76 °F
Forecast: 45 / 77 °F
Wind: 6 mph from Southeast

Location: Will Rogers World Airport

Current Time: Mar 30, 2015 at 1:15:57 PM

Latest Report: Mar 30, 2015 at 12:52 PM


Visibility: 10 mi

Pressure: 30.16 "Hg

Humidity: 28%

Dew point: 38 °F

Location of Oklahoma CityLocation

Historic Weather in Oklahoma City — Graph

°F

Oklahoma City temperature yesterday

Maximum temperature yesterday: 76 °F (at 2:52 PM)
Minimum temperature yesterday: 49 °F (at 7:52 AM)
Average temperature yesterday: 63 °F

Past Weeks' High & Low Weather Summary

 TemperatureHumidityPressure
High84 °F (Mar 25, 1:52 PM)94% (Mar 19, 3:59 AM)30.31 "Hg (Mar 19, 3:59 AM)
Low42 °F (Mar 26, 7:52 AM)25% (Mar 16, 2:52 PM)29.65 "Hg (Mar 25, 5:52 PM)
Average58 °F64%30.04 "Hg
* Reported Mar 15 11:52 AM — Mar 30 11:52 AM, Oklahoma City, Weather by CustomWeather, © 2015

Note: Actual official high and low records may vary slightly from our data, if they occured in-between our weather recording intervals... More about our weather records

Advertising

Oklahoma City weather history for previous 24 hours

 ConditionsComfort  
Time TempWeatherWind HumidityBarometerVisibility
11:52 AM
Mon, Mar 30
70 °FScattered clouds.10 mph38%30.19 "Hg10 mi
10:52 AM66 °FScattered clouds.10 mph42%30.21 "Hg10 mi
9:52 AM60 °FScattered clouds.10 mph47%30.20 "Hg10 mi
8:52 AM54 °FScattered clouds.8 mph62%30.19 "Hg10 mi
7:52 AM47 °FPassing clouds.7 mph71%30.18 "Hg10 mi
6:52 AM47 °FPassing clouds.No wind71%30.16 "Hg10 mi
5:52 AM48 °FPassing clouds.No wind68%30.15 "Hg10 mi
4:52 AM49 °FClear.No wind66%30.14 "Hg10 mi
3:52 AM50 °FClear.8 mph66%30.13 "Hg10 mi
2:52 AM53 °FClear.5 mph59%30.14 "Hg10 mi
1:52 AM53 °FClear.7 mph64%30.14 "Hg10 mi
12:52 AM54 °FPassing clouds.3 mph64%30.14 "Hg10 mi
11:52 PM
Sun, Mar 29
59 °FPassing clouds.3 mph56%30.14 "Hg10 mi
10:52 PM59 °FClear.3 mph54%30.13 "Hg10 mi
9:52 PM64 °FClear.3 mph45%30.11 "Hg10 mi
8:52 PM66 °FClear.6 mph42%30.10 "Hg10 mi
7:52 PM67 °FScattered clouds.8 mph39%30.08 "Hg10 mi
6:52 PM73 °FScattered clouds.9 mph29%30.05 "Hg10 mi
5:52 PM74 °FScattered clouds.17 mph27%30.03 "Hg10 mi
4:52 PM76 °FScattered clouds.18 mph26%30.01 "Hg10 mi
3:52 PM76 °FScattered clouds.14 mph36%30.00 "Hg10 mi
2:52 PM76 °FPassing clouds.16 mph39%29.98 "Hg10 mi
1:52 PM75 °FPassing clouds.13 mph42%29.98 "Hg10 mi
Weather by CustomWeather, © 2015

See weather overviewHow to use our weather pages